This is the latest recevied weather packets stored in our database for station/object VK3HAG. If no packets are shown the sender has not sent any weather packets the latest 10 day(s).
| Time | Temp. | Humidity | Pressure | Rain* | Wind** | Luminosity | Snow |
|---|---|---|---|---|---|---|---|
| 1777393804 | 13.89° C | 88% | 1025.6 hPa | 0 mm | - | - | - |
| 1777392904 | 13.89° C | 88% | 1025.7 hPa | 0 mm | - | - | - |
| 1777392005 | 14.44° C | 87% | 1025.6 hPa | 0 mm | - | - | - |
| 1777391104 | 14.44° C | 87% | 1025.6 hPa | 0 mm | - | - | - |
| 1777390205 | 15° C | 86% | 1025.6 hPa | 0 mm | - | - | - |
| 1777389304 | 15° C | 86% | 1025.6 hPa | 0 mm | - | - | - |
| 1777388405 | 15.56° C | 86% | 1025.5 hPa | 0 mm | - | - | - |
| 1777387505 | 15.56° C | 85% | 1025.4 hPa | 0 mm | - | - | - |
| 1777386604 | 15.56° C | 85% | 1025.3 hPa | 0 mm | - | - | - |
| 1777385704 | 15.56° C | 84% | 1025.3 hPa | 0 mm | - | - | - |
| 1777384814 | 15.56° C | 85% | 1025 hPa | 0 mm | - | - | - |
| 1777383905 | 16.11° C | 85% | 1024.8 hPa | 0 mm | - | - | - |
| 1777383005 | 16.11° C | 85% | 1024.8 hPa | 0 mm | - | - | - |
| 1777382104 | 16.11° C | 84% | 1024.6 hPa | 0 mm | - | - | - |
| 1777381204 | 16.11° C | 82% | 1024.4 hPa | 0 mm | - | - | - |
| 1777380304 | 16.11° C | 81% | 1024.3 hPa | 0 mm | - | - | - |
| 1777379404 | 16.67° C | 78% | 1024.1 hPa | 0 mm | - | - | - |
| 1777378505 | 16.67° C | 78% | 1023.6 hPa | 0 mm | - | - | - |
| 1777377604 | 17.22° C | 77% | 1023.7 hPa | 0 mm | - | - | - |
| 1777376704 | 17.78° C | 76% | 1023.5 hPa | 0 mm | - | - | - |
| 1777375805 | 17.22° C | 76% | 1023.2 hPa | 0 mm | - | - | - |
| 1777374904 | 16.11° C | 73% | 1023 hPa | 0 mm | - | - | - |
| 1777374004 | 16.11° C | 74% | 1022.7 hPa | 0 mm | - | - | - |
| 1777373105 | 14.44° C | 75% | 1022.3 hPa | 0 mm | - | - | - |
| 1777372205 | 15° C | 73% | 1022.1 hPa | 0 mm | - | - | - |
* Rain latest hour (hover to see other rain measurements)
** Current wind speed in m/s (hover to see current wind gust speed)